WUP478 KSAN-KLAX

Flight info

Callsign WUP478
Flight time 0h 41m
Altitude 12000
Route CWARD2 SLI
Aircraft C750/M-SBDE3FGHRWXY/S

Departure

Time 2026-04-25 22:07
Airport San Diego International Airport (KSAN)

Arrival

Time 2026-04-25 22:49
Airport Los Angeles International Airport (KLAX)
Time Latitude Longitude Altitude Speed Heading
2026-04-25 21:51 32.73432 -117.17963 15 ft 0 kts 302°
2026-04-25 22:00 32.73426 -117.17947 23 ft 2 kts 281°
2026-04-25 22:00 32.73429 -117.17929 23 ft 2 kts 218°
2026-04-25 22:01 32.73436 -117.17924 24 ft 0 kts 204°
2026-04-25 22:03 32.73408 -117.17932 24 ft 11 kts 194°
2026-04-25 22:03 32.73377 -117.17942 23 ft 0 kts 196°
2026-04-25 22:04 32.73327 -117.17960 22 ft 16 kts 197°
2026-04-25 22:04 32.73236 -117.17972 19 ft 14 kts 143°
2026-04-25 22:04 32.73199 -117.17846 21 ft 17 kts 106°
2026-04-25 22:04 32.73169 -117.17720 22 ft 15 kts 106°
2026-04-25 22:05 32.73148 -117.17636 19 ft 10 kts 107°
2026-04-25 22:05 32.73105 -117.17559 19 ft 13 kts 146°
2026-04-25 22:05 32.73093 -117.17550 20 ft 0 kts 146°
2026-04-25 22:05 32.73087 -117.17545 19 ft 4 kts 146°
2026-04-25 22:06 32.73057 -117.17526 19 ft 11 kts 164°
2026-04-25 22:06 32.73021 -117.17591 19 ft 16 kts 287°
2026-04-25 22:06 32.73031 -117.17632 20 ft 10 kts 286°
2026-04-25 22:06 32.73130 -117.18038 16 ft 107 kts 286°
2026-04-25 22:07 32.73393 -117.19107 266 ft 147 kts 284°
2026-04-25 22:07 32.73590 -117.19897 737 ft 153 kts 284°
2026-04-25 22:07 32.74333 -117.21333 1789 ft 162 kts 305°
2026-04-25 22:07 32.75035 -117.22562 2253 ft 197 kts 298°
2026-04-25 22:08 32.75787 -117.24066 2854 ft 225 kts 298°
2026-04-25 22:08 32.76647 -117.25756 3611 ft 249 kts 300°
2026-04-25 22:08 32.77568 -117.27459 4881 ft 245 kts 301°
2026-04-25 22:08 32.78486 -117.29234 5697 ft 264 kts 299°
2026-04-25 22:09 32.79485 -117.31244 5947 ft 297 kts 300°
2026-04-25 22:09 32.80518 -117.33182 6682 ft 268 kts 301°
2026-04-25 22:09 32.81632 -117.34962 7802 ft 270 kts 306°
2026-04-25 22:09 32.82924 -117.36635 8861 ft 278 kts 309°
2026-04-25 22:10 32.84246 -117.38380 9774 ft 289 kts 305°
2026-04-25 22:10 32.85482 -117.40302 9968 ft 293 kts 301°
2026-04-25 22:10 32.86657 -117.42259 9960 ft 288 kts 301°
2026-04-25 22:10 32.87845 -117.44128 9964 ft 284 kts 303°
2026-04-25 22:11 32.89041 -117.45939 9970 ft 285 kts 303°
2026-04-25 22:11 32.90254 -117.47817 9962 ft 285 kts 302°
2026-04-25 22:11 32.91452 -117.49692 10083 ft 288 kts 302°
2026-04-25 22:11 32.92734 -117.51691 10285 ft 318 kts 303°
2026-04-25 22:12 32.94135 -117.53873 10289 ft 351 kts 303°
2026-04-25 22:12 32.95686 -117.56285 10287 ft 379 kts 303°
2026-04-25 22:12 32.97335 -117.58849 10281 ft 392 kts 303°
2026-04-25 22:12 32.98439 -117.60572 10280 ft 395 kts 303°
2026-04-25 22:13 33.00637 -117.64011 10274 ft 393 kts 303°
2026-04-25 22:13 33.02301 -117.66614 10264 ft 394 kts 303°
2026-04-25 22:13 33.03967 -117.69216 10263 ft 394 kts 303°
2026-04-25 22:13 33.05615 -117.71786 10259 ft 395 kts 304°
2026-04-25 22:14 33.07533 -117.74164 10237 ft 400 kts 315°
2026-04-25 22:14 33.09683 -117.76298 10281 ft 398 kts 316°
2026-04-25 22:14 33.11707 -117.78344 10131 ft 363 kts 315°
2026-04-25 22:14 33.13598 -117.80299 9990 ft 375 kts 315°
2026-04-25 22:15 33.15575 -117.82332 9988 ft 376 kts 316°
2026-04-25 22:15 33.17628 -117.84396 9989 ft 391 kts 317°
2026-04-25 22:15 33.19926 -117.86032 9957 ft 370 kts 333°
2026-04-25 22:16 33.24677 -117.87495 9973 ft 333 kts 345°
2026-04-25 22:16 33.26854 -117.88031 9983 ft 304 kts 344°
2026-04-25 22:16 33.28910 -117.88567 9968 ft 297 kts 343°
2026-04-25 22:16 33.30886 -117.89068 9972 ft 293 kts 344°
2026-04-25 22:17 33.32905 -117.89573 9976 ft 297 kts 344°
2026-04-25 22:17 33.34947 -117.90080 9975 ft 298 kts 344°
2026-04-25 22:17 33.36982 -117.90585 9977 ft 298 kts 344°
2026-04-25 22:17 33.38968 -117.91144 9967 ft 295 kts 339°
2026-04-25 22:18 33.40908 -117.91875 9986 ft 296 kts 339°
2026-04-25 22:18 33.42914 -117.92588 10000 ft 312 kts 340°
2026-04-25 22:18 33.45128 -117.93367 10003 ft 348 kts 340°
2026-04-25 22:18 33.47564 -117.94252 10007 ft 379 kts 340°
2026-04-25 22:19 33.50139 -117.95198 10007 ft 397 kts 340°
2026-04-25 22:19 33.52789 -117.96169 10007 ft 400 kts 340°
2026-04-25 22:19 33.55470 -117.97141 9993 ft 401 kts 340°
2026-04-25 22:19 33.58149 -117.98112 10000 ft 403 kts 340°
2026-04-25 22:20 33.60812 -117.99087 9686 ft 395 kts 340°
2026-04-25 22:20 33.63338 -118.00002 9279 ft 346 kts 341°
2026-04-25 22:20 33.65462 -118.00763 8886 ft 303 kts 340°
2026-04-25 22:20 33.67372 -118.01468 8471 ft 269 kts 339°
2026-04-25 22:21 33.69065 -118.02089 8006 ft 242 kts 339°
2026-04-25 22:21 33.70724 -118.02706 7574 ft 257 kts 340°
2026-04-25 22:21 33.72433 -118.03332 7170 ft 257 kts 340°
2026-04-25 22:21 33.74120 -118.03947 6948 ft 249 kts 340°
2026-04-25 22:22 33.75707 -118.04591 6932 ft 234 kts 344°
2026-04-25 22:22 33.77293 -118.04852 6950 ft 232 kts 351°
2026-04-25 22:22 33.78914 -118.05046 6969 ft 235 kts 351°
2026-04-25 22:22 33.80556 -118.05243 6973 ft 238 kts 351°
2026-04-25 22:23 33.82193 -118.05443 6975 ft 239 kts 351°
2026-04-25 22:23 33.83867 -118.05654 6981 ft 242 kts 351°
2026-04-25 22:23 33.85461 -118.05854 6978 ft 241 kts 351°
2026-04-25 22:23 33.87128 -118.06053 6923 ft 241 kts 351°
2026-04-25 22:24 33.88721 -118.06642 6391 ft 248 kts 327°
2026-04-25 22:24 33.89992 -118.08049 5953 ft 248 kts 310°
2026-04-25 22:24 33.91185 -118.09555 5587 ft 248 kts 309°
2026-04-25 22:24 33.92414 -118.11030 5234 ft 249 kts 310°
2026-04-25 22:25 33.93633 -118.12486 4886 ft 251 kts 318°
2026-04-25 22:25 33.94818 -118.14052 4434 ft 252 kts 308°
2026-04-25 22:25 33.95944 -118.15688 4018 ft 252 kts 300°
2026-04-25 22:25 33.96359 -118.17691 3508 ft 236 kts 265°
2026-04-25 22:26 33.95736 -118.19391 2919 ft 226 kts 225°
2026-04-25 22:26 33.94402 -118.20140 2865 ft 206 kts 194°
2026-04-25 22:26 33.93012 -118.20422 3016 ft 206 kts 190°
2026-04-25 22:26 33.91577 -118.20714 3017 ft 209 kts 191°
2026-04-25 22:27 33.90127 -118.20523 2933 ft 216 kts 156°
2026-04-25 22:27 33.89155 -118.19167 2906 ft 223 kts 112°
2026-04-25 22:27 33.89213 -118.17334 2924 ft 228 kts 72°
2026-04-25 22:27 33.89962 -118.15638 3037 ft 232 kts 60°
2026-04-25 22:28 33.90772 -118.13940 3021 ft 232 kts 61°
2026-04-25 22:28 33.91573 -118.12251 3012 ft 231 kts 60°
2026-04-25 22:28 33.92362 -118.10583 3004 ft 232 kts 61°
2026-04-25 22:28 33.93326 -118.09031 2911 ft 234 kts 38°
2026-04-25 22:29 33.94824 -118.08485 2872 ft 229 kts 356°
2026-04-25 22:29 33.96221 -118.09248 2846 ft 220 kts 311°
2026-04-25 22:29 33.96778 -118.10882 2864 ft 214 kts 269°
2026-04-25 22:30 33.96144 -118.14365 3023 ft 218 kts 262°
2026-04-25 22:30 33.95988 -118.16184 3010 ft 217 kts 262°
2026-04-25 22:30 33.95808 -118.17977 3002 ft 210 kts 261°
2026-04-25 22:30 33.95692 -118.19113 2992 ft 199 kts 261°
2026-04-25 22:31 33.95481 -118.21161 2935 ft 176 kts 261°
2026-04-25 22:31 33.95329 -118.22614 2716 ft 173 kts 259°
2026-04-25 22:31 33.95179 -118.24033 2494 ft 171 kts 260°
2026-04-25 22:31 33.95034 -118.25449 2256 ft 168 kts 259°
2026-04-25 22:32 33.94904 -118.26778 2037 ft 153 kts 259°
2026-04-25 22:32 33.94766 -118.28065 1845 ft 158 kts 259°
2026-04-25 22:32 33.94643 -118.29343 1634 ft 146 kts 263°
2026-04-25 22:32 33.94536 -118.30430 1457 ft 121 kts 260°
2026-04-25 22:33 33.94433 -118.31434 1288 ft 120 kts 261°
2026-04-25 22:33 33.94334 -118.32418 1133 ft 121 kts 260°
2026-04-25 22:33 33.94230 -118.33455 948 ft 126 kts 260°
2026-04-25 22:33 33.94125 -118.34486 787 ft 122 kts 260°
2026-04-25 22:34 33.94025 -118.35477 636 ft 117 kts 260°
2026-04-25 22:34 33.93916 -118.36441 464 ft 118 kts 262°
2026-04-25 22:34 33.93820 -118.37412 305 ft 113 kts 259°
2026-04-25 22:34 33.93730 -118.38349 153 ft 110 kts 258°
2026-04-25 22:35 33.93645 -118.39099 124 ft 98 kts 262°
2026-04-25 22:35 33.93553 -118.39971 380 ft 134 kts 259°
2026-04-25 22:35 33.93430 -118.41071 912 ft 151 kts 259°
2026-04-25 22:35 33.93271 -118.42239 1814 ft 152 kts 258°
2026-04-25 22:36 33.93242 -118.43527 2721 ft 170 kts 282°
2026-04-25 22:36 33.93514 -118.45113 2862 ft 223 kts 268°
2026-04-25 22:36 33.92864 -118.47066 2624 ft 285 kts 233°
2026-04-25 22:36 33.91499 -118.48583 2559 ft 241 kts 218°
2026-04-25 22:37 33.90163 -118.49768 2562 ft 237 kts 216°
2026-04-25 22:37 33.88850 -118.50925 2942 ft 229 kts 217°
2026-04-25 22:37 33.87555 -118.52053 3000 ft 237 kts 217°
2026-04-25 22:37 33.86133 -118.53267 2981 ft 254 kts 214°
2026-04-25 22:38 33.84436 -118.53803 2894 ft 257 kts 179°
2026-04-25 22:38 33.82833 -118.52974 3184 ft 262 kts 141°
2026-04-25 22:38 33.81909 -118.51082 3573 ft 269 kts 104°
2026-04-25 22:38 33.81912 -118.48823 4070 ft 272 kts 84°
2026-04-25 22:39 33.82200 -118.46558 4695 ft 275 kts 81°
2026-04-25 22:39 33.82509 -118.44247 5078 ft 285 kts 81°
2026-04-25 22:39 33.82821 -118.41896 5013 ft 281 kts 82°
2026-04-25 22:39 33.83132 -118.39592 5013 ft 280 kts 81°
2026-04-25 22:40 33.83443 -118.37308 5009 ft 279 kts 81°
2026-04-25 22:40 33.84046 -118.35098 4986 ft 278 kts 65°
2026-04-25 22:40 33.84941 -118.33031 5004 ft 279 kts 62°
2026-04-25 22:40 33.85877 -118.30975 4999 ft 280 kts 62°
2026-04-25 22:41 33.86813 -118.28928 4638 ft 284 kts 61°
2026-04-25 22:41 33.87765 -118.26849 4253 ft 280 kts 61°
2026-04-25 22:41 33.88693 -118.24828 3864 ft 269 kts 61°
2026-04-25 22:41 33.89489 -118.22877 3442 ft 258 kts 71°
2026-04-25 22:42 33.89890 -118.20797 2988 ft 251 kts 81°
2026-04-25 22:42 33.90183 -118.18811 2980 ft 231 kts 81°
2026-04-25 22:42 33.90461 -118.16939 2865 ft 228 kts 82°
2026-04-25 22:42 33.90945 -118.15105 2480 ft 234 kts 59°
2026-04-25 22:43 33.92187 -118.13941 1951 ft 232 kts 18°
2026-04-25 22:43 33.93703 -118.14045 1800 ft 213 kts 332°
2026-04-25 22:43 33.94683 -118.15273 1834 ft 203 kts 295°
2026-04-25 22:43 33.95283 -118.16846 2019 ft 209 kts 291°
2026-04-25 22:44 33.95685 -118.18506 1982 ft 209 kts 271°
2026-04-25 22:44 33.95570 -118.20266 2031 ft 211 kts 260°
2026-04-25 22:44 33.95419 -118.21765 1978 ft 160 kts 259°
2026-04-25 22:44 33.95284 -118.23097 1988 ft 161 kts 260°
2026-04-25 22:45 33.95151 -118.24413 1990 ft 145 kts 260°
2026-04-25 22:45 33.95043 -118.25517 1966 ft 122 kts 259°
2026-04-25 22:45 33.94939 -118.26517 1996 ft 120 kts 259°
2026-04-25 22:45 33.94837 -118.27530 1936 ft 125 kts 257°
2026-04-25 22:46 33.94727 -118.28578 1773 ft 125 kts 259°
2026-04-25 22:46 33.94625 -118.29587 1588 ft 120 kts 259°
2026-04-25 22:46 33.94525 -118.30568 1439 ft 115 kts 259°
2026-04-25 22:46 33.94427 -118.31525 1284 ft 115 kts 261°
2026-04-25 22:47 33.94331 -118.32476 1137 ft 112 kts 259°
2026-04-25 22:47 33.94227 -118.33438 975 ft 119 kts 259°
2026-04-25 22:47 33.94126 -118.34427 808 ft 120 kts 260°
2026-04-25 22:47 33.94023 -118.35431 635 ft 121 kts 261°
2026-04-25 22:48 33.93920 -118.36442 460 ft 122 kts 263°
2026-04-25 22:48 33.93818 -118.37454 274 ft 120 kts 259°
2026-04-25 22:48 33.93723 -118.38422 140 ft 112 kts 258°
2026-04-25 22:48 33.93638 -118.39205 122 ft 57 kts 264°
2026-04-25 22:49 33.93593 -118.39369 120 ft 14 kts 195°
2026-04-25 22:49 33.93532 -118.39370 120 ft 0 kts 177°
2026-04-25 22:49 33.93531 -118.39370 122 ft 1 kts 177°
2026-04-25 22:50 33.93461 -118.39388 120 ft 14 kts 181°
2026-04-25 22:50 33.93429 -118.39400 122 ft 7 kts 246°
2026-04-25 22:50 33.93426 -118.39499 122 ft 8 kts 259°
2026-04-25 22:50 33.93404 -118.39509 122 ft 0 kts 180°
2026-04-25 22:51 33.93403 -118.39509 122 ft 0 kts 181°